Gainesville, GA

5:59 AM EDT on August 17, 2017 (GMT -0400)
Gilmer Memorial

Weather History for KGVL - February, 2014

Change the Weather History Date:

Friday, February 7, 2014

  Actual Average Record
Temperature  
Mean Temperature 39 °F 44 °F  
Max Temperature 50 °F 53 °F 75 °F (1932)
Min Temperature 27 °F 35 °F 12 °F (1978)
Degree Days  
Heating Degree Days 26 21  
Month to date heating degree days 151 151  
Since 1 July heating degree days 2274 2069  
Moisture  
Dew Point 24 °F    
Average Humidity 60    
Maximum Humidity 85    
Minimum Humidity 34    
Precipitation  
Precipitation 0.00 in 0.15 in 2.45 in (1955)
Month to date precipitation 0.97 1.09  
Year to date precipitation 3.93 6.12  
Snow  
Snow 0.00 in - - ()
Month to date snowfall 0.0  
Since 1 July snowfall T  
Snow Depth 0.00 in    
Sea Level Pressure  
Sea Level Pressure 30.27 in    
Wind  
Wind Speed 5 mph (West)    
Max Wind Speed 12 mph    
Max Gust Speed 29 mph    
Visibility 9 miles    
Events      
T = Trace of Precipitation, MM = Missing Value Source: NWS Daily Summary

Daily Weather History Graph

Daily Weather History Graph

Search for Another Location

Airport or City:

Trip Planner

Search our weather history database for the weather conditions in past years. The results will help you decide how hot, cold, wet, or windy it might be!

Date:

Astronomy

Feb. 07, 2014 Rise Set
Actual Time 7:27 AM EST 6:11 PM EST
Civil Twilight 7:01 AM EST 6:37 PM EST
Nautical Twilight 6:32 AM EST 7:07 PM EST
Astronomical Twilight 6:02 AM EST 7:36 PM EST
Moon 12:24 PM EST (2/7) 1:40 AM EST (2/7)
Length of Visible Light 11h 35m
Length of Day
10h 43m
First Quarter, 59% of the Moon is Illuminated
Feb 7
First Quarter
Feb 14
Full
Feb 22
Last Quarter
Mar 1
New
Mar 8
First Quarter

Hourly Weather History & Observations

Time (EST) Temp. Windchill Dew Point Humidity Pressure Visibility Wind Dir Wind Speed Gust Speed Precip Events Conditions
12:53 AM 32.0 °F 28.7 °F 24.1 °F 73% 30.25 in 10.0 mi WSW 3.5 mph - N/A   Clear
1:53 AM 30.0 °F 26.5 °F 23.0 °F 75% 30.26 in 10.0 mi West 3.5 mph - N/A   Clear
2:53 AM 30.0 °F 25.2 °F 23.0 °F 75% 30.26 in 9.0 mi WNW 4.6 mph - N/A   Clear
3:53 AM 28.9 °F 22.8 °F 24.1 °F 82% 30.28 in 8.0 mi WNW 5.8 mph - N/A   Clear
4:53 AM 28.9 °F 25.2 °F 24.1 °F 82% 30.28 in 7.0 mi NW 3.5 mph - N/A   Clear
5:53 AM 28.0 °F - 24.1 °F 85% 30.27 in 6.0 mi Calm Calm - N/A   Clear
6:53 AM 28.0 °F 24.2 °F 24.1 °F 85% 30.28 in 7.0 mi WNW 3.5 mph - N/A   Clear
7:53 AM 28.0 °F 24.2 °F 25.0 °F 88% 30.31 in 5.0 mi WNW 3.5 mph - N/A   Clear
8:53 AM 32.0 °F 27.5 °F 26.1 °F 79% 30.32 in 7.0 mi NW 4.6 mph - N/A   Clear
9:53 AM 37.0 °F - 27.0 °F 67% 30.33 in 10.0 mi Calm Calm - N/A   Clear
10:53 AM 43.0 °F - 28.0 °F 56% 30.33 in 10.0 mi Calm Calm - N/A   Clear
11:53 AM 45.0 °F 43.5 °F 26.1 °F 48% 30.31 in 10.0 mi Variable 3.5 mph - N/A   Clear
12:53 PM 46.9 °F - 21.9 °F 37% 30.29 in 10.0 mi West 8.1 mph - N/A   Clear
1:53 PM 46.9 °F - 24.1 °F 41% 30.25 in 10.0 mi Variable 4.6 mph - N/A   Clear
2:53 PM 48.0 °F - 21.9 °F 36% 30.25 in 10.0 mi West 4.6 mph - N/A   Clear
3:53 PM 48.9 °F - 23.0 °F 36% 30.24 in 10.0 mi SSW 6.9 mph - N/A   Clear
4:53 PM 48.9 °F - 24.1 °F 38% 30.23 in 10.0 mi WSW 9.2 mph - N/A   Clear
5:53 PM 46.0 °F 41.9 °F 24.1 °F 42% 30.24 in 10.0 mi SW 8.1 mph - N/A   Clear
6:53 PM 44.1 °F 39.0 °F 24.1 °F 45% 30.25 in 10.0 mi WSW 9.2 mph - N/A   Clear
7:53 PM 42.1 °F 36.6 °F 23.0 °F 47% 30.26 in 10.0 mi WSW 9.2 mph - N/A   Clear
8:53 PM 41.0 °F 38.0 °F 23.0 °F 49% 30.26 in 10.0 mi West 4.6 mph - N/A   Clear
9:53 PM 39.0 °F 35.7 °F 24.1 °F 55% 30.25 in 10.0 mi WNW 4.6 mph - N/A   Clear
10:53 PM 37.9 °F - 23.0 °F 55% 30.23 in 10.0 mi Calm Calm - N/A   Clear
11:53 PM 37.0 °F 33.3 °F 24.1 °F 59% 30.24 in 10.0 mi West 4.6 mph - N/A   Clear